DW4764 Weather Reports


time (UTC)temp
C
wind
direction
speed
KPH
gust
KPH
rain 1hr
cm
rain 24hr
cm
rain mn
cm
humidity
%
barometer
mb
20260507221545 16 325 6.4 25.7 0.00 0.23 0.13 29 1014.9
20260507220040 15 16 6.4 14.5 0.00 0.23 0.13 31 1015.3
20260507214539 16 350 11.3 30.6 0.00 0.28 0.13 29 1015.5
20260507213035 16 22 12.9 27.4 0.00 0.28 0.13 32 1015.6
20260507211534 16 22 6.4 20.9 0.00 0.28 0.13 33 1016.0
20260507210029 15 43 8.0 29.0 0.00 0.28 0.13 36 1016.7
20260507204527 15 266 11.3 27.4 0.00 0.28 0.13 33 1017.0
20260507203025 15 271 3.2 19.3 0.00 0.28 0.13 35 1017.4
20260507201522 15 174 8.0 17.7 0.00 0.28 0.13 34 1017.9
20260507200030 15 235 4.8 19.3 0.00 0.28 0.13 34 1018.1
20260507194514 14 335 6.4 27.4 0.00 0.30 0.13 36 1018.3
20260507193012 14 324 6.4 14.5 0.00 0.30 0.13 35 1018.5
20260507191510 13 266 6.4 12.9 0.00 0.30 0.13 34 1018.9
20260507190017 13 349 8.0 16.1 0.00 0.30 0.13 33 1019.3
20260507184504 13 22 6.4 14.5 0.00 0.30 0.13 32 1019.7
20260507183010 13 355 4.8 11.3 0.00 0.30 0.13 31 1019.8
20260507181501 13 292 4.8 14.5 0.00 0.30 0.13 32 1020.0
20260507180105 13 340 3.2 14.5 0.00 0.30 0.13 31 1020.1
20260507174557 13 250 4.8 11.3 0.00 0.30 0.13 30 1020.3
20260507173056 13 285 1.6 8.0 0.00 0.30 0.13 30 1020.7
20260507171556 13 281 1.6 11.3 0.00 0.30 0.13 31 1021.1
20260507170051 13 226 4.8 14.5 0.03 0.30 0.13 32 1021.3
20260507164547 12 298 1.6 8.0 0.03 0.30 0.13 33 1021.6
20260507163044 12 237 4.8 14.5 0.05 0.30 0.13 37 1021.8
20260507161540 11 226 3.2 11.3 0.05 0.30 0.13 40 1022.1
20260507160038 10 232 11.3 16.1 0.05 0.28 0.10 44 1022.3
20260507154537 9 243 6.4 12.9 0.08 0.28 0.10 49 1022.5
20260507153029 8 288 8.0 16.1 0.08 0.25 0.08 52 1022.8
20260507151526 8 242 6.4 12.9 0.08 0.25 0.08 59 1022.9
20260507150021 7 229 4.8 16.1 0.05 0.23 0.05 59 1022.9
20260507144519 7 239 4.8 12.9 0.03 0.20 0.03 56 1023.0
20260507143017 7 230 3.2 8.0 0.00 0.18 0.00 55 1023.1
20260507141513 6 221 3.2 9.7 0.00 0.18 0.00 56 1023.3
20260507140010 5 231 1.6 8.0 0.00 0.18 0.00 58 1023.4
20260507134506 5 233 1.6 9.7 0.00 0.18 0.00 59 1023.4
20260507133003 3 226 3.2 9.7 0.00 0.18 0.00 61 1023.3
20260507131616 2 213 0.0 6.4 0.00 0.18 0.00 66 1023.4
20260507130109 2 250 3.2 8.0 0.00 0.18 0.00 61 1023.4
20260507124606 2 250 0.0 8.0 0.00 0.18 0.00 60 1023.3
20260507123058 1 236 6.4 12.9 0.00 0.18 0.00 61 1023.1
20260507121549 0 265 6.4 12.9 0.00 0.18 0.00 63 1023.0
20260507120046 0 227 4.8 9.7 0.00 0.18 0.00 66 1022.9
20260507114547 0 249 3.2 12.9 0.00 0.18 0.00 66 1023.1
20260507113043 0 242 1.6 11.3 0.00 0.18 0.00 66 1023.2
20260507111544 -1 242 6.4 12.9 0.00 0.18 0.00 70 1023.1
20260507110038 -3 236 1.6 3.2 0.00 0.18 0.00 82 1023.3
20260507104540 -2 22 0.0 4.8 0.00 0.18 0.00 77 1023.2
20260507103036 -1 236 4.8 9.7 0.00 0.18 0.00 69 1023.3
20260507101541 -1 222 3.2 9.7 0.00 0.18 0.00 69 1023.5
20260507100035 -1 229 8.0 16.1 0.00 0.18 0.00 70 1023.8
20260507094531 -1 212 3.2 8.0 0.00 0.18 0.00 72 1023.7
20260507093037 -1 248 3.2 9.7 0.00 0.18 0.00 73 1023.7
20260507091528 -1 238 4.8 9.7 0.00 0.18 0.00 71 1023.8
20260507090032 -1 250 4.8 9.7 0.00 0.18 0.00 74 1023.9
20260507084526 -1 233 1.6 8.0 0.00 0.18 0.00 74 1024.1
20260507083035 -1 239 4.8 9.7 0.00 0.18 0.00 73 1024.0
20260507081525 -1 233 4.8 12.9 0.00 0.18 0.00 75 1024.1
20260507080018 -2 240 6.4 9.7 0.00 0.18 0.00 80 1024.1
20260507074526 -2 238 4.8 9.7 0.00 0.18 0.00 82 1024.1
20260507073013 -3 224 1.6 6.4 0.00 0.18 0.00 90 1024.3
20260507071512 -3 235 0.0 3.2 0.00 0.18 0.00 87 1024.4
20260507070012 -3 226 1.6 4.8 0.00 0.18 0.00 90 1024.5
20260507064506 -3 203 0.0 4.8 0.00 0.18 0.00 92 1024.4
20260507063003 -4 231 0.0 0.0 0.00 0.18 0.00 94 1024.5
20260507061600 -3 243 0.0 0.0 0.00 0.18 0.00 94 1024.5
20260507054605 -3 233 0.0 3.2 0.00 0.18 0.18 94 1024.1
20260507053057 -3 211 1.6 4.8 0.00 0.18 0.18 94 1024.1
20260507051559 -2 207 0.0 3.2 0.00 0.18 0.18 94 1024.1
20260507050054 -2 234 1.6 4.8 0.00 0.18 0.18 93 1023.9
20260507044556 -2 201 0.0 6.4 0.00 0.18 0.18 92 1023.9
20260507043053 -2 160 4.8 9.7 0.00 0.18 0.18 92 1023.9
20260507041559 -2 221 6.4 16.1 0.00 0.18 0.18 91 1023.9
20260507040059 -2 210 6.4 12.9 0.00 0.18 0.18 91 1023.9
20260507034557 -1 201 4.8 16.1 0.00 0.18 0.18 90 1023.8
20260507033049 -1 203 6.4 20.9 0.00 0.18 0.18 89 1023.8
20260507031548 -1 226 8.0 14.5 0.00 0.18 0.18 88 1023.6
20260507030048 -1 211 11.3 17.7 0.00 0.18 0.18 88 1023.4
20260507024546 -1 206 8.0 14.5 0.00 0.18 0.18 87 1023.3
20260507023045 -1 174 6.4 19.3 0.00 0.18 0.18 87 1023.2
20260507021547 -1 203 8.0 16.1 0.00 0.18 0.18 87 1023.2
20260507020053 0 207 6.4 17.7 0.03 0.18 0.18 85 1023.0
20260507014552 0 207 9.7 17.7 0.03 0.18 0.18 84 1022.9
20260507013043 0 219 8.0 12.9 0.03 0.18 0.18 82 1023.0
20260507011554 0 207 9.7 20.9 0.03 0.18 0.18 78 1022.8
20260507010042 1 195 6.4 12.9 0.00 0.15 0.15 77 1022.8
20260507004541 1 211 8.0 16.1 0.00 0.15 0.15 75 1022.8
20260507003040 1 193 6.4 16.1 0.00 0.15 0.15 74 1022.8
20260507001549 1 218 6.4 12.9 0.03 0.15 0.15 75 1022.8
20260507000039 1 189 8.0 14.5 0.03 0.15 0.15 75 1023.0
20260506234542 1 195 6.4 16.1 0.03 0.20 0.15 77 1022.8
20260506233033 0 165 8.0 14.5 0.05 0.20 0.15 79 1022.8
20260506231535 0 206 8.0 14.5 0.05 0.18 0.13 77 1022.9
20260506230028 0 200 8.0 12.9 0.05 0.18 0.13 78 1022.7
20260506224530 0 214 0.0 6.4 0.08 0.23 0.13 83 1022.9
20260506223024 0 63 1.6 6.4 0.05 0.20 0.10 81 1022.9